TimePDT,TemperatureF,Dew PointF,Humidity,Sea Level PressureIn,VisibilityMPH,Wind Direction,Wind SpeedMPH,Gust SpeedMPH,PrecipitationIn,Events,Conditions,WindDirDegrees,DateUTC
12:15 AM,57.2,55.4,94,30.06,5.0,NNW,5.8,-,N/A,,Overcast,330,2013-07-17 07:15:00
12:35 AM,57.2,55.4,94,30.06,5.0,NW,4.6,-,N/A,,Overcast,320,2013-07-17 07:35:00
12:55 AM,57.2,55.4,94,30.06,5.0,NW,4.6,-,N/A,,Overcast,310,2013-07-17 07:55:00
1:15 AM,57.2,55.4,94,30.06,6.0,NW,3.5,-,N/A,,Overcast,320,2013-07-17 08:15:00
1:35 AM,57.2,55.4,94,30.06,5.0,WNW,3.5,-,N/A,,Overcast,300,2013-07-17 08:35:00
1:55 AM,57.2,55.4,94,30.07,7.0,NNW,4.6,-,N/A,,Overcast,330,2013-07-17 08:55:00
2:15 AM,57.2,55.4,94,30.07,6.0,NW,4.6,-,N/A,,Overcast,320,2013-07-17 09:15:00
2:35 AM,57.2,55.4,94,30.07,5.0,NW,3.5,-,N/A,,Overcast,320,2013-07-17 09:35:00
2:55 AM,57.2,55.4,94,30.07,7.0,NW,3.5,-,N/A,,Overcast,310,2013-07-17 09:55:00
3:15 AM,57.2,55.4,94,30.07,7.0,NW,3.5,-,N/A,,Overcast,310,2013-07-17 10:15:00
3:35 AM,57.2,55.4,94,30.06,8.0,NW,3.5,-,N/A,,Overcast,320,2013-07-17 10:35:00
3:55 AM,57.2,55.4,94,30.06,8.0,NW,3.5,-,N/A,,Overcast,310,2013-07-17 10:55:00
4:15 AM,57.2,55.4,94,30.06,8.0,WNW,4.6,-,N/A,,Overcast,300,2013-07-17 11:15:00
4:35 AM,57.2,55.4,94,30.06,9.0,NW,6.9,-,N/A,,Overcast,320,2013-07-17 11:35:00
4:55 AM,57.2,55.4,94,30.06,10.0,NW,6.9,-,N/A,,Overcast,320,2013-07-17 11:55:00
5:15 AM,57.2,55.4,94,30.07,10.0,NW,6.9,-,N/A,,Overcast,310,2013-07-17 12:15:00
5:35 AM,57.2,55.4,94,30.07,10.0,NNW,5.8,-,N/A,,Overcast,330,2013-07-17 12:35:00
5:55 AM,57.2,55.4,94,30.08,10.0,NW,5.8,-,N/A,,Overcast,320,2013-07-17 12:55:00
6:15 AM,57.2,55.4,94,30.08,9.0,NNW,5.8,-,N/A,,Overcast,330,2013-07-17 13:15:00
6:35 AM,57.2,55.4,94,30.09,10.0,NW,5.8,-,N/A,,Overcast,310,2013-07-17 13:35:00
6:55 AM,57.2,55.4,94,30.09,9.0,North,-9999.0,-,N/A,,Overcast,0,2013-07-17 13:55:00
7:15 AM,57.2,55.4,94,30.09,9.0,NNW,5.8,-,N/A,,Overcast,330,2013-07-17 14:15:00
7:35 AM,57.2,55.4,94,30.10,10.0,North,6.9,-,N/A,,Overcast,350,2013-07-17 14:35:00
7:55 AM,57.2,53.6,88,30.10,10.0,NW,9.2,-,N/A,,Overcast,320,2013-07-17 14:55:00
8:15 AM,57.2,53.6,88,30.11,10.0,NW,8.1,-,N/A,,Overcast,320,2013-07-17 15:15:00
8:35 AM,57.2,53.6,88,30.12,10.0,NW,8.1,-,N/A,,Overcast,320,2013-07-17 15:35:00
8:55 AM,57.2,53.6,88,30.12,10.0,NW,8.1,-,N/A,,Overcast,320,2013-07-17 15:55:00
9:15 AM,57.2,53.6,88,30.12,10.0,NW,10.4,-,N/A,,Overcast,310,2013-07-17 16:15:00
9:35 AM,59.0,53.6,82,30.12,10.0,NNW,10.4,-,N/A,,Overcast,330,2013-07-17 16:35:00
9:55 AM,57.2,53.6,88,30.13,9.0,NW,8.1,-,N/A,,Overcast,310,2013-07-17 16:55:00
10:15 AM,57.2,53.6,88,30.13,10.0,NW,10.4,-,N/A,,Overcast,320,2013-07-17 17:15:00
10:35 AM,57.2,55.4,94,30.13,9.0,NW,10.4,-,N/A,,Overcast,320,2013-07-17 17:35:00
10:55 AM,57.2,53.6,88,30.13,10.0,NNW,11.5,-,N/A,,Overcast,330,2013-07-17 17:55:00
11:15 AM,57.2,53.6,88,30.13,8.0,NW,11.5,-,N/A,,Overcast,320,2013-07-17 18:15:00
11:35 AM,59.0,55.4,88,30.14,9.0,NNW,13.8,-,N/A,,Overcast,330,2013-07-17 18:35:00
11:55 AM,59.0,55.4,88,30.14,10.0,NW,11.5,-,N/A,,Overcast,310,2013-07-17 18:55:00
12:15 PM,59.0,53.6,82,30.14,10.0,NW,10.4,-,N/A,,Overcast,310,2013-07-17 19:15:00
12:35 PM,59.0,53.6,82,30.14,10.0,NW,8.1,-,N/A,,Overcast,310,2013-07-17 19:35:00
12:55 PM,59.0,53.6,82,30.14,10.0,NW,10.4,-,N/A,,Overcast,320,2013-07-17 19:55:00
1:15 PM,59.0,53.6,82,30.14,10.0,NW,11.5,-,N/A,,Overcast,320,2013-07-17 20:15:00
1:35 PM,59.0,55.4,88,30.14,10.0,NW,10.4,-,N/A,,Overcast,320,2013-07-17 20:35:00
1:55 PM,59.0,55.4,88,30.14,10.0,NNW,11.5,-,N/A,,Overcast,330,2013-07-17 20:55:00
2:15 PM,60.8,55.4,82,30.14,10.0,NW,10.4,-,N/A,,Overcast,320,2013-07-17 21:15:00
2:35 PM,59.0,53.6,82,30.13,9.0,NW,12.7,-,N/A,,Overcast,320,2013-07-17 21:35:00
2:55 PM,59.0,53.6,82,30.13,10.0,NNW,12.7,-,N/A,,Overcast,330,2013-07-17 21:55:00
3:15 PM,59.0,53.6,82,30.13,9.0,NNW,11.5,-,N/A,,Overcast,330,2013-07-17 22:15:00
3:35 PM,59.0,53.6,82,30.13,9.0,NNW,11.5,-,N/A,,Overcast,340,2013-07-17 22:35:00
3:55 PM,59.0,53.6,82,30.13,10.0,NNW,10.4,-,N/A,,Overcast,330,2013-07-17 22:55:00
4:15 PM,59.0,53.6,82,30.12,9.0,North,9.2,-,N/A,,Overcast,350,2013-07-17 23:15:00
4:35 PM,59.0,53.6,82,30.12,10.0,NNW,6.9,-,N/A,,Overcast,330,2013-07-17 23:35:00
4:55 PM,57.2,53.6,88,30.12,9.0,NW,8.1,-,N/A,,Overcast,310,2013-07-17 23:55:00
5:15 PM,57.2,53.6,88,30.11,9.0,North,-9999.0,-,N/A,,Overcast,0,2013-07-18 00:15:00
5:35 PM,57.2,53.6,88,30.11,9.0,North,-9999.0,-,N/A,,Overcast,0,2013-07-18 00:35:00
5:55 PM,57.2,53.6,88,30.10,9.0,North,-9999.0,-,N/A,,Overcast,0,2013-07-18 00:55:00
6:15 PM,55.4,53.6,94,30.10,10.0,NW,8.1,-,N/A,,Overcast,320,2013-07-18 01:15:00
6:35 PM,55.4,53.6,94,30.10,10.0,NNW,8.1,-,N/A,,Overcast,330,2013-07-18 01:35:00
6:55 PM,55.4,53.6,94,30.10,9.0,North,-9999.0,-,N/A,,Overcast,0,2013-07-18 01:55:00
7:15 PM,55.4,53.6,94,30.10,9.0,North,-9999.0,-,N/A,,Overcast,0,2013-07-18 02:15:00
7:35 PM,55.4,53.6,94,30.10,9.0,North,-9999.0,-,N/A,,Overcast,0,2013-07-18 02:35:00
7:55 PM,55.4,53.6,94,30.10,10.0,North,-9999.0,-,N/A,,Overcast,0,2013-07-18 02:55:00
8:15 PM,55.4,53.6,94,30.11,10.0,NNW,8.1,-,N/A,,Overcast,330,2013-07-18 03:15:00
8:35 PM,55.4,53.6,94,30.11,9.0,NW,8.1,-,N/A,,Overcast,320,2013-07-18 03:35:00
8:55 PM,55.4,53.6,94,30.11,10.0,NNW,8.1,-,N/A,,Unknown,340,2013-07-18 03:55:00
9:15 PM,55.4,53.6,94,30.11,10.0,NW,10.4,-,N/A,,Overcast,320,2013-07-18 04:15:00
9:35 PM,53.6,51.8,94,30.11,9.0,NNW,5.8,-,N/A,,Overcast,340,2013-07-18 04:35:00
9:55 PM,53.6,53.6,100,30.11,7.0,NNW,6.9,-,N/A,,Overcast,330,2013-07-18 04:55:00
10:15 PM,53.6,53.6,100,30.12,7.0,North,8.1,-,N/A,,Overcast,350,2013-07-18 05:15:00
10:35 PM,53.6,53.6,100,30.12,7.0,North,5.8,-,N/A,,Overcast,350,2013-07-18 05:35:00
10:55 PM,53.6,53.6,100,30.12,7.0,North,10.4,-,N/A,,Overcast,360,2013-07-18 05:55:00
11:15 PM,53.6,53.6,100,30.12,7.0,North,6.9,-,N/A,,Overcast,360,2013-07-18 06:15:00
11:35 PM,53.6,53.6,100,30.11,7.0,North,5.8,-,N/A,,Overcast,350,2013-07-18 06:35:00
11:55 PM,53.6,53.6,100,30.11,6.0,NW,5.8,-,N/A,,Overcast,320,2013-07-18 06:55:00